Regional Weather Roundup
Issued by NWS San Diego, CA

Home | Current Version | Previous Version | Text Only | Print | Product List | Glossary On
Versions: 1 2 3 4 5 6 7 8 9 10 11 12 13 14 15 16 17 18 19 20 21 22 23 24 25 26 27 28 29 30 31 32 33 34 35 36 37 38 39 40 41 42 43 44 45 46 47 48 49 50
816
ASUS46 KSGX 260011
RWRSGX

SAN DIEGO HOURLY WEATHER ROUNDUP
NATIONAL WEATHER SERVICE SAN DIEGO CA
500 PM PDT MON SEP 25 2017

NOTE: "FAIR" INDICATES FEW OR NO CLOUDS BELOW 12,000 FEET WITH NO
SIGNIFICANT WEATHER AND/OR OBSTRUCTIONS TO VISIBILITY.

CAZ042-043-060-061-PZZ750-775-260100-

GREATER SAN DIEGO AREA

CITY           SKY/WX    TMP DP  RH WIND       PRES   REMARKS
SAN DIEGO AP   MOSUNNY   77  56  48 NW12      29.78S
NATIONAL CITY    N/A     76  58  52 W5        29.79S
CHULA VISTA      N/A     79  57  46 W7        29.70S
IMPERIAL BEACH MOSUNNY   73  62  68 W9        29.78F
BROWN FIELD    SUNNY     78  52  40 W8        29.78S
MIRAMAR MCAS   MOSUNNY   81  50  33 NW13      29.78S
MONTGOMERY FLD SUNNY     80  51  36 NW10      29.78S
GILLESPIE FLD  SUNNY     82  37  20 W12       29.78S

$$

NORTH SAN DIEGO COUNTY

CITY           SKY/WX    TMP DP  RH WIND       PRES   REMARKS
CAMP PENDLETON MOSUNNY   81  31  16 SW8       29.75F
OCEANSIDE AP   SUNNY     80  38  22 NW12      29.75F
OCEANSIDE HBR    N/A     73  65  76 W5        29.79F
VISTA            N/A     80  39  23 SW6       29.74F
CARLSBAD       SUNNY     76  44  32 W6        29.76F
DEL MAR          N/A     72  58  60 N3        29.79F
LA JOLLA SCRIP   N/A     72  63  73 NW3       29.77S
FALLBROOK        N/A     82  29  15 SW2       29.77F
ESCONDIDO        N/A     79  39  23 W3        29.78F
SAN MARCOS       N/A     79  39  23 W9        29.78F
POWAY            N/A     82  43  25 N3        29.79R

$$

EAST SAN DIEGO COUNTY

CITY           SKY/WX    TMP DP  RH WIND       PRES   REMARKS
RAMONA         SUNNY     80  32  17 NW12      29.80S
SANTEE LAKES     N/A     82  44  26 W10       29.75S
LA MESA          N/A     80  41  24 NW5       29.70S
JAMUL            N/A     80  40  23 CALM      29.77S
DESCANSO N       N/A     74  34  23 W1        29.73F
CAMPO            N/A     78  17  10 NE8       29.80F

$$

ORANGE COUNTY AND THE LOS ANGELES BASIN

CITY           SKY/WX    TMP DP  RH WIND       PRES   REMARKS
JOHN WAYNE AP  MOSUNNY   79  51  37 S10       29.76S
LAGUNA BEACH     N/A     82  45  27 S1        29.73S
LAKE FOREST FR   N/A     83  28  13 W5        29.64F
HUNTINGTON BCH   N/A     80  50  34 W12       29.77S
LOS ALAMITOS   FAIR      86  32  14 NW16G22   29.75R
FULLERTON      PTSUNNY   86  28  12 W7G17     29.75R
LONG BEACH     SUNNY     82  43  25 W15       29.76R
L.A. AP        MOSUNNY   78  47  33 W16       29.78R
L.A. DOWNTOWN  SUNNY     82  31  15 W7        29.77R

$$

THE INLAND EMPIRE

CITY           SKY/WX    TMP DP  RH WIND       PRES   REMARKS
CORONA         MOSUNNY   85  35  16 W9G18     29.76R
CHINO          MOSUNNY   89  25  10 W12       29.77S
ONTARIO        PTSUNNY   87  21   9 W10       29.76F
RIVERSIDE AP   SUNNY     88  26  10 N8G16     29.76S
MORENO VALLEY    N/A     85  31  14 SW8       27.88F
MARCH ARB      SUNNY     84  20   9 NW16      29.78F
HORSETHIEF CYN   N/A     84  19   9 CALM      29.75F
PERRIS           N/A     83  29  13 W8          N/A
HEMET EAST       N/A     83  17   8 CALM      29.80F
FRENCH VALLEY  FAIR      82  34  17 SW10      29.79R
TEMECULA         N/A     81  32  16 S7        29.81R

$$

SAN BERNARDINO AND RIVERSIDE COUNTY MOUNTAINS

CITY           SKY/WX    TMP DP  RH WIND       PRES   REMARKS
BIG BEAR AP    SUNNY     55  16  21 NE9       30.04S
ANGELUS OAKS     N/A     65  29  25 CALM      29.74S
PINE COVE        N/A     64  23  21 SW3       29.84F

$$

SOUTHERN DESERT INCLUDING THE COACHELLA VALLEY

CITY           SKY/WX    TMP DP  RH WIND       PRES   REMARKS
PALM SPRINGS   SUNNY     89  22   8 S6        29.76F
THOUSAND PALMS   N/A     90  24   9 NE2       29.71F
PALM DESERT      N/A     92  28  10 W3          N/A
THERMAL        SUNNY     91  20   7 W8        29.70F
BLYTHE         SUNNY     89  19   7 N10       29.72F
IMPERIAL AP    SUNNY     89  25  10 N9        29.72F
EL CENTRO NAS  SUNNY     90  14   6 N9        29.74F
YUMA AZ        SUNNY     90  22   8 N8        29.71F
MEXICALI       SUNNY     90  18   7 W8        29.73S

$$

UPPER DESERT

CITY           SKY/WX    TMP DP  RH WIND       PRES   REMARKS
VICTORVILLE AP SUNNY     75  21  13 CALM      29.91S
HESPERIA         N/A     76  26  16 N3        29.96F
PALMDALE       SUNNY     79  23  12 NE9       29.90S
LANCASTER      SUNNY     78  21  12 E7        29.89S
EDWARDS AFB    PTSUNNY   79  20  11 NE5       29.86F
DAGGETT        SUNNY     81  23  11 N17       29.86F
29 PALMS N     SUNNY     80  17   9 N12       29.91F
NEEDLES        SUNNY     87  19   8 NE13      29.77F

$$

REGIONAL REPORTS

CITY           SKY/WX    TMP DP  RH WIND       PRES   REMARKS
SANTA BARBARA  SUNNY     75  55  49 SW6       29.79F
SANDBERG       SUNNY     74  22  14 NE10      29.99S
LAS VEGAS NV   MOSUNNY   78  25  14 NE9       29.86F
PHOENIX AZ     MOSUNNY   89  17   7 VRB3      29.69F
TIJUANA        MOSUNNY   77  45  31 SW9       29.81S

$$

OFFSHORE ISLANDS

CITY           SKY/WX    TMP DP  RH WIND       PRES   REMARKS
CATALINA ARPT  SUNNY     76  33  21 W12       29.84F
SAN CLEMENTE I MOSUNNY   72  64  76 SW10      29.80F
SAN NICOLAS IS FOG      N/A N/A N/A NW10      29.81S VSB 1/4

$$

MARINE AND OFFSHORE BUOY REPORTS

STATION/POSITION SKY/WX   TEMP    WIND        PRES    VSBY  SWELL
                          AIR SEA DIR/SP/G                  HT/PER/DIR
                          (F)     (DEG/KT/KT) (MB)    (MI)  (FT/S/D)
TANNER BANKS               66 67  290/  8/  8 1008.9F         3/320/ 9
S CLEMENTE BASIN           69 71  270/ 14/ 16 1008.1F         2/300/ 8
SAN NICOLAS IS.               64                N/A           2/160/13
SO. S. ROSA ISLA           63 61  310/ 14/ 16 1009.4F         3/300/ 8
W. S. BARBARA CH           62 60  290/ 14/ 16 1009.4F         2/280/ 8
M. S. BARBARA CH           64 64  260/ 12/ 14 1009.7F         2/230/ 8
S. MONICA BASIN               69  300/  6/  8 1008.5S         2/210/12
S PEDRO CHANNEL               66                N/A           2/160/13
CMP PENDLETON NS              69                N/A
OCEANSIDE OFFSHR              69                N/A           2/190/13
TORREY PINES OTR              70                N/A           2/200/13
SAN DIEGO BAY                 73              1008.6S
POINT LOMA SOUTH              71                N/A           2/180/13

$$





USA.gov is the U.S. government's official web portal to all federal, state and local government web resources and services.